CW9307 Weather Reports


Display with metric or nautical units.
time (UTC)temp
F
wind
direction
speed
MPH
gust
MPH
rain 1hr
in
rain 24hr
in
rain mn
in
humidity
%
barometer
mb
20240222030013 42 122 4.0 10.0 0.00 0.00 0.00 58 1010.2
20240222024513 42 163 4.0 8.0 0.00 0.00 0.00 60 1009.9
20240222023013 44 123 6.0 10.0 0.00 0.00 0.00 56 1009.4
20240222021516 44 142 5.0 11.0 0.00 0.00 0.00 54 1009.3
20240222020014 45 109 8.0 10.0 0.00 0.00 0.00 52 1009.2
20240222014513 45 111 5.0 11.0 0.00 0.00 0.00 53 1009.4
20240222013013 46 72 8.0 11.0 0.00 0.00 0.00 49 1008.9
20240222011512 47 58 9.0 14.0 0.00 0.00 0.00 49 1008.7
20240222010013 47 70 5.0 6.0 0.00 0.00 0.00 49 1008.4
20240222004515 49 83 7.0 11.0 0.00 0.00 0.00 46 1008.6
20240222003019 51 55 5.0 15.0 0.00 0.00 0.00 40 1008.4
20240222001636 57 298 4.0 11.0 0.00 0.00 0.00 17 1008.2
20240222001513 57 298 4.0 11.0 0.00 0.00 0.00 17 1008.2
20240222000022 59 275 7.0 25.0 0.00 0.00 0.00 14 1007.8
20240221234853 59 291 8.0 13.0 0.00 0.00 0.00 16 1007.6
20240221233013 60 24 4.0 18.0 0.00 0.00 0.00 16 1007.3
20240221231514 61 263 19.0 26.0 0.00 0.00 0.00 13 1007.0
20240221230023 61 277 16.0 23.0 0.00 0.00 0.00 14 1006.8
20240221224516 59 71 8.0 12.0 0.00 0.00 0.00 29 1006.4
20240221223013 59 349 5.0 10.0 0.00 0.00 0.00 30 1006.5
20240221221735 58 28 4.0 7.0 0.00 0.00 0.00 30 1006.4
20240221220014 58 33 5.0 11.0 0.00 0.00 0.00 31 1006.1
20240221215043 58 15 10.0 14.0 0.00 0.00 0.00 31 1006.1
20240221213011 59 351 7.0 10.0 0.00 0.00 0.00 31 1005.9
20240221211511 58 54 6.0 12.0 0.00 0.00 0.00 32 1006.0
20240221204514 56 34 10.0 14.0 0.00 0.00 0.00 36 1005.7
20240221203013 55 28 8.0 13.0 0.00 0.00 0.00 40 1006.0
20240221201515 55 55 7.0 14.0 0.00 0.00 0.00 43 1006.1
20240221200015 54 14 10.0 15.0 0.00 0.00 0.00 45 1006.6
20240221194517 53 18 9.0 14.0 0.00 0.00 0.00 45 1007.0
20240221193013 53 25 9.0 14.0 0.00 0.00 0.00 45 1007.1
20240221191523 52 50 10.0 15.0 0.00 0.00 0.00 48 1007.5
20240221190014 51 15 9.0 12.0 0.00 0.00 0.00 48 1007.8
20240221184514 50 27 10.0 15.0 0.00 0.00 0.00 52 1008.2
20240221183013 50 49 9.0 12.0 0.00 0.00 0.00 51 1008.5
20240221181518 51 63 7.0 11.0 0.00 0.00 0.00 50 1008.7
20240221180018 50 27 7.0 11.0 0.00 0.00 0.00 50 1009.1
20240221174513 49 79 7.0 10.0 0.00 0.00 0.00 51 1009.3
20240221173013 47 49 6.0 11.0 0.00 0.00 0.00 55 1009.7
20240221171513 46 68 7.0 10.0 0.00 0.00 0.00 58 1010.1
20240221170027 45 23 7.0 10.0 0.00 0.00 0.00 61 1010.4
20240221164512 45 30 8.0 11.0 0.00 0.00 0.00 63 1010.4
20240221163011 44 18 3.0 6.0 0.00 0.00 0.00 63 1010.8
20240221161537 43 24 4.0 8.0 0.00 0.00 0.00 65 1010.8
20240221160017 41 59 2.0 10.0 0.00 0.00 0.00 67 1010.8
20240221154514 40 30 4.0 9.0 0.00 0.00 0.00 70 1010.8
20240221153013 38 352 1.0 5.0 0.00 0.00 0.00 73 1011.1
20240221151512 36 294 2.0 3.0 0.00 0.00 0.00 74 1011.2
20240221150013 35 0 0.0 5.0 0.00 0.00 0.00 78 1011.5
20240221144513 33 264 3.0 5.0 0.00 0.00 0.00 79 1011.6
20240221143013 32 0 0.0 4.0 0.00 0.00 0.00 80 1011.4
20240221141515 31 159 1.0 4.0 0.00 0.00 0.00 80 1011.8
20240221140023 31 213 2.0 4.0 0.00 0.00 0.00 81 1011.7
20240221134513 31 196 1.0 2.0 0.00 0.00 0.00 78 1011.4
20240221133012 31 202 0.0 3.0 0.00 0.00 0.00 77 1011.5
20240221131514 33 219 2.0 3.0 0.00 0.00 0.00 74 1011.6
20240221130013 32 280 0.0 3.0 0.00 0.00 0.00 77 1011.7
20240221124513 33 83 2.0 4.0 0.00 0.00 0.00 75 1011.5
20240221123036 35 292 3.0 6.0 0.00 0.00 0.00 67 1011.8
20240221121511 33 152 1.0 7.0 0.00 0.00 0.00 77 1011.9
20240221120015 35 217 3.0 5.0 0.00 0.00 0.00 72 1012.1
20240221114519 35 238 1.0 6.0 0.00 0.00 0.00 72 1012.2
20240221113013 37 190 3.0 6.0 0.00 0.00 0.00 70 1012.2
20240221111515 38 190 5.0 8.0 0.00 0.00 0.00 69 1012.4
20240221110014 35 265 0.0 6.0 0.00 0.00 0.00 71 1012.6
20240221104518 39 184 2.0 4.0 0.00 0.00 0.00 64 1012.6
20240221103014 38 81 1.0 4.0 0.00 0.00 0.00 68 1012.8
20240221101516 38 221 1.0 6.0 0.00 0.00 0.00 66 1013.0
20240221100013 38 74 0.0 2.0 0.00 0.00 0.00 67 1013.2
20240221094535 42 0 1.0 5.0 0.00 0.00 0.00 60 1013.5
20240221093019 44 184 3.0 7.0 0.00 0.00 0.00 56 1013.6
20240221091519 46 126 1.0 3.0 0.00 0.00 0.00 53 1013.9
20240221090014 43 94 6.0 8.0 0.00 0.00 0.00 58 1013.9
20240221084512 43 88 3.0 4.0 0.00 0.00 0.00 57 1014.1
20240221083017 42 311 0.0 5.0 0.00 0.00 0.00 60 1014.3
20240221081521 42 344 1.0 3.0 0.00 0.00 0.00 60 1014.4
20240221080014 45 135 0.0 3.0 0.00 0.00 0.00 55 1014.5
20240221074513 46 219 2.0 8.0 0.00 0.00 0.00 52 1014.9
20240221073014 49 129 6.0 13.0 0.00 0.00 0.00 48 1015.1
20240221071518 47 221 2.0 7.0 0.00 0.00 0.00 50 1015.5
20240221070013 45 141 2.0 7.0 0.00 0.00 0.00 52 1015.8
20240221064513 45 328 0.0 2.0 0.00 0.00 0.00 53 1015.7
20240221063017 47 0 1.0 3.0 0.00 0.00 0.00 50 1015.5
20240221061513 45 300 1.0 2.0 0.00 0.00 0.00 54 1015.3
20240221060013 45 0 0.0 2.0 0.00 0.00 0.00 54 1015.4
20240221054511 45 101 3.0 4.0 0.00 0.00 0.00 55 1015.6
20240221053021 47 98 3.0 5.0 0.00 0.00 0.00 50 1015.5
20240221051515 49 111 6.0 12.0 0.00 0.00 0.00 46 1015.6
20240221050012 48 121 5.0 7.0 0.00 0.00 0.00 48 1015.6
20240221044514 49 134 2.0 4.0 0.00 0.00 0.00 45 1015.3
20240221043021 53 282 4.0 13.0 0.00 0.00 0.00 39 1015.4
20240221041514 54 245 9.0 12.0 0.00 0.00 0.00 36 1015.2
20240221040012 55 233 11.0 18.0 0.00 0.00 0.00 36 1015.2
20240221034614 54 238 12.0 18.0 0.00 0.00 0.00 36 1015.1